Time,TemperatureF,DewpointF,PressureIn,WindDirection,WindDirectionDegrees,WindSpeedMPH,WindSpeedGustMPH,Humidity,HourlyPrecipIn,Conditions,Clouds,dailyrainin,SoftwareType,DateUTC
2013-10-22 00:00:00,64.0,58.7,29.97,NNW,338,2.0,2.0,83,0.00,,,0.00,Wunderground v.1.15,2013-10-22 04:00:00,
2013-10-22 00:10:00,63.9,59.0,29.96,NNW,336,2.0,2.0,84,0.00,,,0.00,Wunderground v.1.15,2013-10-22 04:10:00,
2013-10-22 00:20:00,63.8,58.9,29.96,NNW,328,3.0,3.0,84,0.00,,,0.00,Wunderground v.1.15,2013-10-22 04:20:00,
2013-10-22 00:30:00,63.6,58.3,29.96,NW,313,3.0,3.0,83,0.00,,,0.00,Wunderground v.1.15,2013-10-22 04:30:00,
2013-10-22 00:40:00,63.7,58.1,29.96,NNW,340,3.0,3.0,82,0.00,,,0.00,Wunderground v.1.15,2013-10-22 04:40:00,
2013-10-22 00:50:00,63.9,58.0,29.95,WNW,296,3.0,3.0,81,0.00,,,0.00,Wunderground v.1.15,2013-10-22 04:50:00,
2013-10-22 01:00:00,63.8,58.2,29.95,WNW,301,3.0,5.0,82,0.00,,,0.00,Wunderground v.1.15,2013-10-22 05:00:00,
2013-10-22 01:10:00,63.7,58.4,29.96,NW,315,2.0,2.0,83,0.00,,,0.00,Wunderground v.1.15,2013-10-22 05:10:00,
2013-10-22 01:20:00,63.6,58.7,29.96,NW,321,3.0,3.0,84,0.00,,,0.00,Wunderground v.1.15,2013-10-22 05:20:00,
2013-10-22 01:30:00,63.4,58.8,29.96,NNW,340,3.0,6.0,85,0.00,,,0.00,Wunderground v.1.15,2013-10-22 05:30:00,
2013-10-22 01:40:00,63.3,59.0,29.96,NNE,27,2.0,2.0,86,0.00,,,0.00,Wunderground v.1.15,2013-10-22 05:40:00,
2013-10-22 01:50:00,63.2,59.3,29.95,North,350,2.0,3.0,87,0.00,,,0.00,Wunderground v.1.15,2013-10-22 05:50:00,
2013-10-22 02:00:00,63.1,59.2,29.95,NNW,338,2.0,2.0,87,0.00,,,0.00,Wunderground v.1.15,2013-10-22 06:00:00,
2013-10-22 02:10:00,62.8,59.2,29.95,NW,323,1.0,2.0,88,0.00,,,0.00,Wunderground v.1.15,2013-10-22 06:10:00,
2013-10-22 02:20:00,62.4,59.1,29.95,WNW,299,3.0,3.0,89,0.00,,,0.00,Wunderground v.1.15,2013-10-22 06:20:00,
2013-10-22 02:30:00,62.2,58.9,29.95,WNW,295,3.0,6.0,89,0.00,,,0.00,Wunderground v.1.15,2013-10-22 06:30:00,
2013-10-22 02:40:00,62.0,59.0,29.94,NNW,332,3.0,4.0,90,0.00,,,0.00,Wunderground v.1.15,2013-10-22 06:40:00,
2013-10-22 02:51:00,61.8,59.1,29.94,NNW,336,3.0,3.0,91,0.00,,,0.00,Wunderground v.1.15,2013-10-22 06:51:00,
2013-10-22 03:00:00,61.5,58.8,29.94,NE,39,3.0,3.0,91,0.00,,,0.00,Wunderground v.1.15,2013-10-22 07:00:00,
2013-10-22 03:11:00,61.4,58.4,29.94,NW,308,3.0,3.0,90,0.00,,,0.00,Wunderground v.1.15,2013-10-22 07:11:00,
2013-10-22 03:20:00,61.4,58.4,29.94,NNE,27,3.0,3.0,90,0.00,,,0.00,Wunderground v.1.15,2013-10-22 07:20:00,
2013-10-22 03:31:00,61.3,58.0,29.94,NNE,13,2.0,2.0,89,0.00,,,0.00,Wunderground v.1.15,2013-10-22 07:31:00,
2013-10-22 03:40:00,61.3,57.7,29.93,NNW,334,4.0,4.0,88,0.00,,,0.00,Wunderground v.1.15,2013-10-22 07:40:00,
2013-10-22 03:51:00,61.4,57.2,29.92,NNW,337,4.0,6.0,86,0.00,,,0.00,Wunderground v.1.15,2013-10-22 07:51:00,
2013-10-22 04:00:00,61.4,56.8,29.92,NNE,28,4.0,4.0,85,0.00,,,0.00,Wunderground v.1.15,2013-10-22 08:00:00,
2013-10-22 04:10:00,61.4,56.5,29.92,NNW,327,3.0,3.0,84,0.00,,,0.00,Wunderground v.1.15,2013-10-22 08:10:00,
2013-10-22 04:21:00,61.3,56.4,29.92,NNW,327,3.0,3.0,84,0.00,,,0.00,Wunderground v.1.15,2013-10-22 08:21:00,
2013-10-22 04:30:00,61.1,56.2,29.92,NW,318,3.0,4.0,84,0.00,,,0.00,Wunderground v.1.15,2013-10-22 08:30:00,
2013-10-22 04:40:00,60.7,56.2,29.93,NW,308,3.0,5.0,85,0.00,,,0.00,Wunderground v.1.15,2013-10-22 08:40:00,
2013-10-22 04:51:00,60.4,56.2,29.93,NW,304,3.0,3.0,86,0.00,,,0.00,Wunderground v.1.15,2013-10-22 08:51:00,
2013-10-22 05:00:00,60.2,56.0,29.93,WNW,295,3.0,5.0,86,0.00,,,0.00,Wunderground v.1.15,2013-10-22 09:00:00,
2013-10-22 05:10:00,60.2,56.0,29.93,NW,319,3.0,4.0,86,0.00,,,0.00,Wunderground v.1.15,2013-10-22 09:10:00,
2013-10-22 05:21:00,60.1,55.9,29.93,NNW,336,3.0,3.0,86,0.00,,,0.00,Wunderground v.1.15,2013-10-22 09:21:00,
2013-10-22 05:30:00,60.1,55.6,29.93,NNW,329,2.0,2.0,85,0.00,,,0.00,Wunderground v.1.15,2013-10-22 09:30:00,
2013-10-22 05:40:00,60.1,55.2,29.93,NNW,333,2.0,2.0,84,0.00,,,0.00,Wunderground v.1.15,2013-10-22 09:40:00,
2013-10-22 05:50:00,60.1,55.2,29.93,NNW,327,2.0,2.0,84,0.00,,,0.00,Wunderground v.1.15,2013-10-22 09:50:00,
2013-10-22 06:00:00,60.1,54.9,29.93,NW,308,2.0,2.0,83,0.00,,,0.00,Wunderground v.1.15,2013-10-22 10:00:00,
2013-10-22 06:10:00,60.0,55.2,29.93,NW,313,1.0,2.0,84,0.00,,,0.00,Wunderground v.1.15,2013-10-22 10:10:00,
2013-10-22 06:21:00,59.9,55.1,29.93,NW,320,2.0,2.0,84,0.00,,,0.00,Wunderground v.1.15,2013-10-22 10:21:00,
2013-10-22 06:30:00,59.8,54.6,29.93,NNW,346,2.0,2.0,83,0.00,,,0.00,Wunderground v.1.15,2013-10-22 10:30:00,
2013-10-22 06:40:00,59.8,54.6,29.93,NW,311,1.0,1.0,83,0.00,,,0.00,Wunderground v.1.15,2013-10-22 10:40:00,
2013-10-22 06:51:00,59.7,54.5,29.93,NNW,336,1.0,1.0,83,0.00,,,0.00,Wunderground v.1.15,2013-10-22 10:51:00,
2013-10-22 07:01:00,59.6,54.1,29.93,NW,313,1.0,2.0,82,0.00,,,0.00,Wunderground v.1.15,2013-10-22 11:01:00,
2013-10-22 07:10:00,59.7,53.9,29.93,NW,312,2.0,2.0,81,0.00,,,0.00,Wunderground v.1.15,2013-10-22 11:10:00,
2013-10-22 07:21:00,59.9,53.7,29.93,NW,317,1.0,2.0,80,0.00,,,0.00,Wunderground v.1.15,2013-10-22 11:21:00,
2013-10-22 07:31:00,59.9,53.4,29.93,NW,318,1.0,2.0,79,0.00,,,0.00,Wunderground v.1.15,2013-10-22 11:31:00,
2013-10-22 07:40:00,60.0,53.5,29.92,ENE,63,1.0,2.0,79,0.00,,,0.00,Wunderground v.1.15,2013-10-22 11:40:00,
2013-10-22 07:51:00,60.2,53.3,29.91,NNE,17,1.0,1.0,78,0.00,,,0.00,Wunderground v.1.15,2013-10-22 11:51:00,
2013-10-22 08:00:00,60.0,53.5,29.91,WNW,302,0.0,0.0,79,0.00,,,0.00,Wunderground v.1.15,2013-10-22 12:00:00,
2013-10-22 08:11:00,59.9,54.1,29.93,WNW,302,0.0,0.0,81,0.00,,,0.00,Wunderground v.1.15,2013-10-22 12:11:00,
2013-10-22 08:20:00,59.8,54.3,29.94,WNW,302,0.0,0.0,82,0.00,,,0.00,Wunderground v.1.15,2013-10-22 12:20:00,
2013-10-22 08:31:00,59.8,54.3,29.94,NNE,19,1.0,1.0,82,0.00,,,0.00,Wunderground v.1.15,2013-10-22 12:31:00,
2013-10-22 08:40:00,59.7,54.2,29.94,WNW,302,1.0,1.0,82,0.00,,,0.00,Wunderground v.1.15,2013-10-22 12:40:00,
2013-10-22 08:51:00,59.8,54.3,29.95,NW,323,1.0,1.0,82,0.00,,,0.00,Wunderground v.1.15,2013-10-22 12:51:00,
2013-10-22 09:01:00,59.9,54.1,29.95,WNW,302,1.0,1.0,81,0.00,,,0.00,Wunderground v.1.15,2013-10-22 13:01:00,
2013-10-22 09:11:00,60.3,53.8,29.96,NW,312,1.0,1.0,79,0.00,,,0.00,Wunderground v.1.15,2013-10-22 13:11:00,
2013-10-22 09:21:00,60.7,53.8,29.96,NNW,335,0.0,1.0,78,0.00,,,0.00,Wunderground v.1.15,2013-10-22 13:21:00,
2013-10-22 09:31:00,60.9,54.0,29.96,NNW,346,1.0,1.0,78,0.00,,,0.00,Wunderground v.1.15,2013-10-22 13:31:00,
2013-10-22 09:40:00,61.2,53.9,29.97,WSW,248,1.0,1.0,77,0.00,,,0.00,Wunderground v.1.15,2013-10-22 13:40:00,
2013-10-22 09:51:00,61.9,54.2,29.96,NW,326,1.0,1.0,76,0.00,,,0.00,Wunderground v.1.15,2013-10-22 13:51:00,
2013-10-22 10:00:00,62.3,54.3,29.96,NE,38,2.0,3.0,75,0.00,,,0.00,Wunderground v.1.15,2013-10-22 14:00:00,
2013-10-22 10:10:00,62.6,53.8,29.93,North,355,2.0,3.0,73,0.00,,,0.00,Wunderground v.1.15,2013-10-22 14:10:00,
2013-10-22 10:21:00,63.1,53.5,29.93,NNE,32,3.0,3.0,71,0.00,,,0.00,Wunderground v.1.15,2013-10-22 14:21:00,
2013-10-22 10:30:00,63.5,54.3,29.93,NNE,24,2.0,4.0,72,0.00,,,0.00,Wunderground v.1.15,2013-10-22 14:30:00,
2013-10-22 10:41:00,63.8,55.0,29.94,WNW,299,2.0,2.0,73,0.00,,,0.00,Wunderground v.1.15,2013-10-22 14:41:00,
2013-10-22 10:50:00,64.1,54.5,29.95,West,273,2.0,2.0,71,0.00,,,0.00,Wunderground v.1.15,2013-10-22 14:50:00,
2013-10-22 11:01:00,64.3,54.7,29.95,NW,326,1.0,1.0,71,0.00,,,0.00,Wunderground v.1.15,2013-10-22 15:01:00,
2013-10-22 11:10:00,64.5,55.3,29.95,WNW,301,1.0,1.0,72,0.00,,,0.00,Wunderground v.1.15,2013-10-22 15:10:00,
2013-10-22 11:21:00,64.4,55.2,29.93,NNW,344,1.0,1.0,72,0.00,,,0.00,Wunderground v.1.15,2013-10-22 15:21:00,
2013-10-22 11:30:00,64.4,55.6,29.93,WNW,284,1.0,1.0,73,0.00,,,0.00,Wunderground v.1.15,2013-10-22 15:30:00,
2013-10-22 11:41:00,64.4,55.2,29.94,NNE,13,1.0,1.0,72,0.00,,,0.00,Wunderground v.1.15,2013-10-22 15:41:00,
2013-10-22 11:51:00,64.5,55.7,29.92,NW,315,1.0,1.0,73,0.00,,,0.00,Wunderground v.1.15,2013-10-22 15:51:00,
2013-10-22 12:01:00,64.5,55.3,29.92,NNW,341,2.0,2.0,72,0.00,,,0.00,Wunderground v.1.15,2013-10-22 16:01:00,
2013-10-22 12:11:00,64.7,55.8,29.92,NW,324,1.0,1.0,73,0.00,,,0.00,Wunderground v.1.15,2013-10-22 16:11:00,
2013-10-22 12:21:00,65.1,56.6,29.92,WNW,290,1.0,1.0,74,0.00,,,0.00,Wunderground v.1.15,2013-10-22 16:21:00,
2013-10-22 12:31:00,65.2,56.3,29.92,NW,308,2.0,2.0,73,0.00,,,0.00,Wunderground v.1.15,2013-10-22 16:31:00,
2013-10-22 12:41:00,65.2,55.2,29.92,West,271,2.0,2.0,70,0.00,,,0.00,Wunderground v.1.15,2013-10-22 16:41:00,
2013-10-22 12:51:00,65.5,56.2,29.91,NW,308,2.0,2.0,72,0.00,,,0.00,Wunderground v.1.15,2013-10-22 16:51:00,
2013-10-22 13:01:00,65.6,56.7,29.91,WNW,286,1.0,2.0,73,0.00,,,0.00,Wunderground v.1.15,2013-10-22 17:01:00,
2013-10-22 13:11:00,65.8,56.5,29.90,WNW,283,1.0,1.0,72,0.00,,,0.00,Wunderground v.1.15,2013-10-22 17:11:00,
2013-10-22 13:21:00,66.4,57.5,29.90,West,269,0.0,0.0,73,0.00,,,0.00,Wunderground v.1.15,2013-10-22 17:21:00,
2013-10-22 13:31:00,66.7,57.4,29.90,WSW,246,1.0,1.0,72,0.00,,,0.00,Wunderground v.1.15,2013-10-22 17:31:00,
2013-10-22 13:41:00,66.7,57.4,29.90,WSW,253,1.0,1.0,72,0.00,,,0.00,Wunderground v.1.15,2013-10-22 17:41:00,
2013-10-22 13:51:00,67.0,56.9,29.88,West,281,0.0,0.0,70,0.00,,,0.00,Wunderground v.1.15,2013-10-22 17:51:00,
2013-10-22 14:01:00,67.1,57.0,29.88,West,263,1.0,1.0,70,0.00,,,0.00,Wunderground v.1.15,2013-10-22 18:01:00,
2013-10-22 14:10:00,67.1,56.6,29.88,West,280,1.0,1.0,69,0.00,,,0.00,Wunderground v.1.15,2013-10-22 18:10:00,
2013-10-22 14:21:00,67.1,55.8,29.86,WNW,291,1.0,1.0,67,0.00,,,0.00,Wunderground v.1.15,2013-10-22 18:21:00,
2013-10-22 14:31:00,67.1,56.2,29.86,WNW,287,0.0,0.0,68,0.00,,,0.00,Wunderground v.1.15,2013-10-22 18:31:00,
2013-10-22 14:41:00,66.8,57.5,29.86,WSW,250,1.0,1.0,72,0.00,,,0.00,Wunderground v.1.15,2013-10-22 18:41:00,
2013-10-22 14:51:00,66.7,57.0,29.87,West,281,1.0,1.0,71,0.00,,,0.00,Wunderground v.1.15,2013-10-22 18:51:00,
2013-10-22 15:01:00,66.6,57.7,29.87,WSW,252,1.0,1.0,73,0.00,,,0.00,Wunderground v.1.15,2013-10-22 19:01:00,
2013-10-22 15:11:00,66.5,58.0,29.87,WSW,240,0.0,0.0,74,0.00,,,0.00,Wunderground v.1.15,2013-10-22 19:11:00,
2013-10-22 15:21:00,66.4,58.2,29.88,SW,234,1.0,1.0,75,0.00,,,0.00,Wunderground v.1.15,2013-10-22 19:21:00,
2013-10-22 15:31:00,66.4,59.0,29.88,WSW,249,2.0,2.0,77,0.00,,,0.00,Wunderground v.1.15,2013-10-22 19:31:00,
2013-10-22 15:41:00,66.2,59.1,29.87,WSW,242,3.0,3.0,78,0.00,,,0.00,Wunderground v.1.15,2013-10-22 19:41:00,
2013-10-22 15:51:00,66.0,58.9,29.86,SW,215,3.0,3.0,78,0.00,,,0.00,Wunderground v.1.15,2013-10-22 19:51:00,
2013-10-22 16:01:00,65.9,58.8,29.86,SW,214,3.0,4.0,78,0.00,,,0.00,Wunderground v.1.15,2013-10-22 20:01:00,
2013-10-22 16:11:00,65.8,59.5,29.86,West,261,2.0,2.0,80,0.00,,,0.00,Wunderground v.1.15,2013-10-22 20:11:00,
2013-10-22 16:21:00,65.5,58.5,29.88,WSW,245,2.0,4.0,78,0.00,,,0.00,Wunderground v.1.15,2013-10-22 20:21:00,
2013-10-22 16:31:00,65.4,58.7,29.88,SW,229,1.0,2.0,79,0.00,,,0.00,Wunderground v.1.15,2013-10-22 20:31:00,
2013-10-22 16:41:00,65.4,58.7,29.87,SW,235,2.0,3.0,79,0.00,,,0.00,Wunderground v.1.15,2013-10-22 20:41:00,
2013-10-22 16:51:00,65.4,58.7,29.86,WSW,250,1.0,1.0,79,0.00,,,0.00,Wunderground v.1.15,2013-10-22 20:51:00,
2013-10-22 17:01:00,65.2,58.9,29.86,WSW,250,0.0,0.0,80,0.00,,,0.00,Wunderground v.1.15,2013-10-22 21:01:00,
2013-10-22 17:11:00,65.1,59.5,29.86,SW,226,0.0,0.0,82,0.00,,,0.00,Wunderground v.1.15,2013-10-22 21:11:00,
2013-10-22 17:21:00,64.9,59.6,29.85,SW,226,0.0,1.0,83,0.00,,,0.00,Wunderground v.1.15,2013-10-22 21:21:00,
2013-10-22 17:31:00,64.3,59.7,29.85,WSW,258,1.0,1.0,85,0.00,,,0.00,Wunderground v.1.15,2013-10-22 21:31:00,
2013-10-22 17:41:00,63.8,59.9,29.85,WSW,258,0.0,0.0,87,0.00,,,0.00,Wunderground v.1.15,2013-10-22 21:41:00,
2013-10-22 17:51:00,63.6,60.0,29.86,WSW,258,0.0,0.0,88,0.00,,,0.00,Wunderground v.1.15,2013-10-22 21:51:00,
2013-10-22 18:01:00,63.5,60.2,29.86,WSW,257,0.0,1.0,89,0.00,,,0.00,Wunderground v.1.15,2013-10-22 22:01:00,
2013-10-22 18:11:00,63.8,60.5,29.86,SW,219,0.0,0.0,89,0.00,,,0.00,Wunderground v.1.15,2013-10-22 22:11:00,
2013-10-22 18:21:00,63.8,60.5,29.86,SW,236,1.0,1.0,89,0.00,,,0.00,Wunderground v.1.15,2013-10-22 22:21:00,
2013-10-22 18:31:00,63.9,60.3,29.86,West,262,1.0,1.0,88,0.00,,,0.00,Wunderground v.1.15,2013-10-22 22:31:00,
2013-10-22 18:41:00,63.4,59.8,29.86,WSW,254,1.0,1.0,88,0.00,,,0.00,Wunderground v.1.15,2013-10-22 22:41:00,
2013-10-22 18:51:00,63.3,60.0,29.86,WSW,243,1.0,1.0,89,0.00,,,0.00,Wunderground v.1.15,2013-10-22 22:51:00,
2013-10-22 19:01:00,63.5,59.9,29.86,SW,224,2.0,3.0,88,0.00,,,0.00,Wunderground v.1.15,2013-10-22 23:01:00,
2013-10-22 19:11:00,64.9,60.3,29.86,SSW,201,6.0,7.0,85,0.00,,,0.00,Wunderground v.1.15,2013-10-22 23:11:00,
2013-10-22 19:31:00,64.3,59.7,29.87,West,280,2.0,2.0,85,0.00,,,0.01,Wunderground v.1.15,2013-10-22 23:31:00,
2013-10-22 19:41:00,63.8,59.9,29.86,WSW,238,1.0,1.0,87,0.00,,,0.01,Wunderground v.1.15,2013-10-22 23:41:00,
2013-10-22 19:51:00,63.5,59.9,29.85,WSW,240,0.0,1.0,88,0.00,,,0.01,Wunderground v.1.15,2013-10-22 23:51:00,
2013-10-22 20:01:00,63.3,60.0,29.85,WNW,282,1.0,1.0,89,0.00,,,0.01,Wunderground v.1.15,2013-10-23 00:01:00,
2013-10-22 20:11:00,63.1,60.1,29.86,West,281,0.0,0.0,90,0.00,,,0.01,Wunderground v.1.15,2013-10-23 00:11:00,
2013-10-22 20:21:00,63.1,60.1,29.86,West,281,0.0,0.0,90,0.00,,,0.01,Wunderground v.1.15,2013-10-23 00:21:00,
2013-10-22 20:31:00,63.0,60.0,29.86,West,281,0.0,0.0,90,0.00,,,0.01,Wunderground v.1.15,2013-10-23 00:31:00,
2013-10-22 20:41:00,63.1,60.4,29.86,West,281,0.0,0.0,91,0.00,,,0.01,Wunderground v.1.15,2013-10-23 00:41:00,
2013-10-22 20:51:00,63.0,60.3,29.87,WSW,248,0.0,1.0,91,0.00,,,0.01,Wunderground v.1.15,2013-10-23 00:51:00,
2013-10-22 21:01:00,63.3,60.3,29.87,WSW,254,1.0,1.0,90,0.00,,,0.01,Wunderground v.1.15,2013-10-23 01:01:00,
2013-10-22 21:11:00,63.4,60.1,29.85,WSW,251,0.0,1.0,89,0.00,,,0.01,Wunderground v.1.15,2013-10-23 01:11:00,
2013-10-22 21:21:00,63.5,60.2,29.85,WSW,248,1.0,1.0,89,0.00,,,0.01,Wunderground v.1.15,2013-10-23 01:21:00,
2013-10-22 21:31:00,63.2,59.9,29.85,WSW,251,0.0,0.0,89,0.00,,,0.01,Wunderground v.1.15,2013-10-23 01:31:00,
2013-10-22 21:41:00,63.3,60.0,29.85,WSW,251,1.0,1.0,89,0.00,,,0.01,Wunderground v.1.15,2013-10-23 01:41:00,
2013-10-22 21:51:00,62.9,59.9,29.85,WSW,250,0.0,0.0,90,0.00,,,0.01,Wunderground v.1.15,2013-10-23 01:51:00,
2013-10-22 22:01:00,62.7,60.0,29.85,WSW,250,0.0,1.0,91,0.00,,,0.01,Wunderground v.1.15,2013-10-23 02:01:00,
2013-10-22 22:11:00,62.7,60.3,29.85,West,263,0.0,0.0,92,0.00,,,0.01,Wunderground v.1.15,2013-10-23 02:11:00,
2013-10-22 22:21:00,62.9,60.2,29.85,SW,218,1.0,1.0,91,0.00,,,0.01,Wunderground v.1.15,2013-10-23 02:21:00,
2013-10-22 22:31:00,63.0,60.3,29.85,WSW,248,0.0,0.0,91,0.00,,,0.01,Wunderground v.1.15,2013-10-23 02:31:00,
2013-10-22 22:41:00,63.4,60.7,29.85,WSW,239,1.0,2.0,91,0.00,,,0.01,Wunderground v.1.15,2013-10-23 02:41:00,
2013-10-22 22:51:00,64.0,60.7,29.85,SW,227,2.0,2.0,89,0.00,,,0.01,Wunderground v.1.15,2013-10-23 02:51:00,
2013-10-22 23:01:00,63.7,60.7,29.85,West,263,1.0,1.0,90,0.00,,,0.01,Wunderground v.1.15,2013-10-23 03:01:00,
2013-10-22 23:11:00,63.7,60.1,29.83,SW,233,0.0,0.0,88,0.00,,,0.02,Wunderground v.1.15,2013-10-23 03:11:00,
2013-10-22 23:21:00,63.7,59.8,29.83,West,265,1.0,1.0,87,0.00,,,0.02,Wunderground v.1.15,2013-10-23 03:21:00,
2013-10-22 23:31:00,64.1,60.2,29.83,South,177,2.0,3.0,87,0.00,,,0.02,Wunderground v.1.15,2013-10-23 03:31:00,
2013-10-22 23:41:00,65.1,60.1,29.82,South,182,5.0,5.0,84,0.00,,,0.02,Wunderground v.1.15,2013-10-23 03:41:00,
2013-10-22 23:51:00,65.3,60.3,29.82,SSW,200,7.0,7.0,84,0.00,,,0.02,Wunderground v.1.15,2013-10-23 03:51:00,